Time,TemperatureF,DewpointF,PressureIn,WindDirection,WindDirectionDegrees,WindSpeedMPH,WindSpeedGustMPH,Humidity,HourlyPrecipIn,Conditions,Clouds,dailyrainin,SoftwareType,DateUTC
2013-09-16 08:52:00,43.0,-99.9,-100.00,NNE,30,6.0,6.0,-999,-99.99,,,-99.99,,2013-09-16 14:52:00,
2013-09-16 09:00:00,45.0,-99.9,-100.00,NE,35,5.0,7.0,-999,-99.99,,,-99.99,,2013-09-16 15:00:00,
2013-09-16 09:02:00,43.0,-99.9,-100.00,NNE,30,6.0,6.0,-999,-99.99,,,-99.99,,2013-09-16 15:02:00,
2013-09-16 09:53:00,45.0,-99.9,-100.00,NE,35,5.0,7.0,-999,-99.99,,,-99.99,,2013-09-16 15:53:00,
2013-09-16 10:52:00,45.0,-99.9,-100.00,NNE,25,6.0,7.0,-999,-99.99,,,-99.99,,2013-09-16 16:52:00,
2013-09-16 11:00:00,46.0,-99.9,-100.00,NNE,30,6.0,7.0,-999,-99.99,,,-99.99,,2013-09-16 17:00:00,
2013-09-16 11:03:00,45.0,-99.9,-100.00,NNE,25,6.0,7.0,-999,-99.99,,,-99.99,,2013-09-16 17:03:00,
2013-09-16 11:53:00,46.0,-99.9,-100.00,NNE,30,6.0,7.0,-999,-99.99,,,-99.99,,2013-09-16 17:53:00,
2013-09-16 12:00:00,50.0,-99.9,-100.00,NNE,15,4.0,5.0,-999,-99.99,,,-99.99,,2013-09-16 18:00:00,
2013-09-16 12:52:00,50.0,-99.9,-100.00,NNE,15,4.0,5.0,-999,-99.99,,,-99.99,,2013-09-16 18:52:00,
2013-09-16 13:00:00,55.0,-99.9,-100.00,NE,38,6.0,8.0,-999,-99.99,,,-99.99,,2013-09-16 19:00:00,
2013-09-16 13:53:00,55.0,-99.9,-100.00,NE,38,6.0,8.0,-999,-99.99,,,-99.99,,2013-09-16 19:53:00,
2013-09-16 14:52:00,57.0,-99.9,-100.00,East,99,4.0,4.0,-999,-99.99,,,-99.99,,2013-09-16 20:52:00,
2013-09-16 15:03:00,57.0,-99.9,-100.00,East,99,4.0,4.0,-999,-99.99,,,-99.99,,2013-09-16 21:03:00,
2013-09-16 15:12:00,57.0,-99.9,-100.00,East,99,4.0,4.0,-999,-99.99,,,-99.99,,2013-09-16 21:12:00,
2013-09-16 15:56:00,57.0,-99.9,-100.00,NE,45,6.0,7.0,-999,-99.99,,,-99.99,,2013-09-16 21:56:00,
2013-09-16 16:04:00,57.0,-99.9,-100.00,NE,45,6.0,7.0,-999,-99.99,,,-99.99,,2013-09-16 22:04:00,
2013-09-16 16:13:00,57.0,-99.9,-100.00,NE,45,6.0,7.0,-999,-99.99,,,-99.99,,2013-09-16 22:13:00,
2013-09-16 16:54:00,59.0,-99.9,-100.00,NNE,26,5.0,7.0,-999,-99.99,,,-99.99,,2013-09-16 22:54:00,
2013-09-16 17:02:00,59.0,-99.9,-100.00,NNE,26,5.0,7.0,-999,-99.99,,,-99.99,,2013-09-16 23:02:00,
2013-09-16 17:12:00,59.0,-99.9,-100.00,NNE,26,5.0,7.0,-999,-99.99,,,-99.99,,2013-09-16 23:12:00,
2013-09-16 17:53:00,55.0,-99.9,-100.00,NNE,23,6.0,8.0,-999,-99.99,,,-99.99,,2013-09-16 23:53:00,
2013-09-16 18:02:00,55.0,-99.9,-100.00,NNE,23,6.0,8.0,-999,-99.99,,,-99.99,,2013-09-17 00:02:00,
2013-09-16 18:11:00,55.0,-99.9,-100.00,NNE,23,6.0,8.0,-999,-99.99,,,-99.99,,2013-09-17 00:11:00,
2013-09-16 18:52:00,54.0,-99.9,-100.00,NE,44,4.0,8.0,-999,-99.99,,,-99.99,,2013-09-17 00:52:00,
2013-09-16 19:02:00,54.0,-99.9,-100.00,NE,44,4.0,8.0,-999,-99.99,,,-99.99,,2013-09-17 01:02:00,
2013-09-16 19:10:00,52.0,-99.9,-100.00,NNE,23,3.0,3.0,-999,-99.99,,,-99.99,,2013-09-17 01:10:00,
2013-09-16 19:12:00,54.0,-99.9,-100.00,NE,44,4.0,8.0,-999,-99.99,,,-99.99,,2013-09-17 01:12:00,
2013-09-16 19:53:00,52.0,-99.9,-100.00,NNE,23,3.0,3.0,-999,-99.99,,,-99.99,,2013-09-17 01:53:00,
2013-09-16 20:03:00,52.0,-99.9,-100.00,NNE,23,3.0,3.0,-999,-99.99,,,-99.99,,2013-09-17 02:03:00,
2013-09-16 20:10:00,52.0,-99.9,-100.00,East,87,1.0,2.0,-999,-99.99,,,-99.99,,2013-09-17 02:10:00,
2013-09-16 20:53:00,52.0,-99.9,-100.00,East,87,1.0,2.0,-999,-99.99,,,-99.99,,2013-09-17 02:53:00,
2013-09-16 21:02:00,52.0,-99.9,-100.00,East,87,1.0,2.0,-999,-99.99,,,-99.99,,2013-09-17 03:02:00,
2013-09-16 21:10:00,52.0,-99.9,-100.00,ENE,74,0.0,1.0,-999,-99.99,,,-99.99,,2013-09-17 03:10:00,
2013-09-16 21:54:00,52.0,-99.9,-100.00,ENE,74,0.0,1.0,-999,-99.99,,,-99.99,,2013-09-17 03:54:00,
2013-09-16 22:05:00,52.0,-99.9,-100.00,ENE,74,0.0,1.0,-999,-99.99,,,-99.99,,2013-09-17 04:05:00,
2013-09-16 22:10:00,48.0,-99.9,-100.00,NE,39,0.0,1.0,-999,-99.99,,,-99.99,,2013-09-17 04:10:00,
2013-09-16 22:54:00,48.0,-99.9,-100.00,NE,39,0.0,1.0,-999,-99.99,,,-99.99,,2013-09-17 04:54:00,
2013-09-16 23:04:00,48.0,-99.9,-100.00,NE,39,0.0,1.0,-999,-99.99,,,-99.99,,2013-09-17 05:04:00,